Regional Weather Roundup
Issued by NWS

Home | Current Version | Previous Version | Graphics & Text | Print | Product List | Glossary On
Versions: 1 2 3 4 5 6 7 8 9 10 11 12 13 14 15 16 17 18 19 20 21 22 23 24 25 26 27 28 29 30 31 32 33 34 35 36 37 38 39 40 41 42 43 44 45 46 47 48 49 50
000
ASUS45 KBOU 230207
RWRCO

WEATHER ROUNDUP FOR COLORADO
NATIONAL WEATHER SERVICE DENVER/BOULDER CO
800 PM MDT FRI JUL 22 2016

NOTE: "FAIR" INDICATES FEW OR NO CLOUDS BELOW 12000 FEET WITH NO
SIGNIFICANT WEATHER AND/OR OBSTRUCTIONS TO VISIBILITY.

COZ001>005-013-030-031-230300-
...NORTHWEST COLORADO...

CITY           SKY/WX    TMP DP  RH WIND       PRES   REMARKS
CRAIG          FAIR      73  45  36 W13       30.29R
HAYDEN         FAIR      72  45  37 W17G23    30.32R
MEEKER         FAIR      75  46  35 W5        30.29F
MOUNT WERNER   NOT AVBL
STEAMBOAT SPGS MOCLDY    74  47  38 W12       30.33R
WALDEN         FAIR      72  39  30 SW15      30.39R
$$

COZ006>008-011-230300-
...WEST CENTRAL VALLEYS...

CITY           SKY/WX    TMP DP  RH WIND       PRES   REMARKS
GRAND JUNCTION TSTM      77  58  51 NW13G21   30.18R
MONTROSE       FAIR      77  49  37 E12       30.24R
EAGLE          FAIR      72  54  53 E12       30.30S
RIFLE          FAIR      72  56  57 SW5       30.22F
DELTA          FAIR      86  46  25 NE3       30.19R
NUCLA          NOT AVBL
$$

COZ017>023-064>068-230300-
...SOUTHWEST COLORADO...

CITY           SKY/WX    TMP DP  RH WIND       PRES   REMARKS
DURANGO        FAIR      80  47  31 N12       30.26R
CORTEZ         FAIR      81  51  35 N7        30.22R
PAGOSA SPRINGS FAIR      78  42  27 NW8       30.35R
TELLURIDE      FAIR      64  51  62 CALM      30.51S
WOLF CREEK PAS FAIR      54  43  66 SE3       30.74F
$$

COZ009-010-012-014-032>034-037-058>063-230300-
...CENTRAL COLORADO...

CITY           SKY/WX    TMP DP  RH WIND       PRES   REMARKS
ASPEN          FAIR      66  49  54 NE3       30.39S
BUENA VISTA    FAIR      70  44  38 NW13      30.40R
COPPER MTN     CLOUDY    54  43  66 NW3       30.75S
BERTHOUD PASS  CLOUDY    46  34  61 W17G24    30.75F
COTTONWOOD PAS FAIR      66  41  39 W5        30.56R
GUNNISON       FAIR      63  52  67 CALM      30.44S
KREMMLING      FAIR      70  43  37 S9        30.36R
LEADVILLE      FAIR      57  47  69 N6        30.56S
MONARCH PASS   FAIR      52  41  66 W14       30.82F
SALIDA         FAIR      75  45  34 CALM      30.42F
SUNLIGHT       MOCLDY    61  36  39 CALM      30.65F
WILKERSON PASS FAIR      57  36  44 W6        30.69S
$$

COZ069>075-230300-
...SAN LUIS VALLEY/SANGRE DE CRISTO MOUNTAINS...

CITY           SKY/WX    TMP DP  RH WIND       PRES   REMARKS
ALAMOSA        MOCLDY    77  47  34 N12       30.33S
LA VETA PASS   FAIR      64  37  36 S8        30.57F
SAGUACHE       FAIR      68  46  45 N7        30.40S
$$

COZ035-036-038>040-230300-
...NORTHERN COLORADO FRONT RANGE...

CITY           SKY/WX    TMP DP  RH WIND       PRES   REMARKS
DENVER INTL AP MOCLDY    85  48  27 W13       30.11R
DMNS CITY PARK   N/A     85  44  23 S5G13     30.10S
AURORA         MOCLDY    81  50  33 W9        30.13S
FRONT RANGE AP MOCLDY    84  52  32 S5        30.12S
ERIE MUNI ARPT TSTM      82  49  30 E10G16    30.10R
BOULDER MUN AP LGT RAIN  82  52  34 CALM      30.11R
CENTENNIAL     MOCLDY    79  47  32 SW9       30.15S
BROOMFIELD     MOCLDY    82  48  30 SW16G22   30.13S
LONGMONT       MOCLDY    85  50  30 CALM      30.11R
$$

COZ041-046-047-076>085-087-088-230300-
...PIKES PEAK/PALMER DIVIDE AND SOUTHERN FOOTHILLS...

CITY           SKY/WX    TMP DP  RH WIND       PRES   REMARKS
COLO. SPRINGS  MOCLDY    80  53  39 CALM      30.22R
A. F. ACADEMY  FAIR      78  50  37 SE8       30.24R
SCHRIEVER AFB  NOT AVBL
ELLICOTT       FAIR     N/A N/A N/A SE12      30.19F
FALCON         NOT AVBL
FORT CARSON    NOT AVBL
LIMON          MOCLDY    90  39  16 SW10G21   30.08F
MONUMENT HILL  FAIR      66  55  68 SW6       30.29R
TRINIDAD       NOT AVBL
$$

COZ042>045-048>051-090-091-230300-
...NORTHEAST COLORADO...

CITY           SKY/WX    TMP DP  RH WIND       PRES   REMARKS
GREELEY ARPT   FAIR      84  55  37 NW8       30.04F
AKRON          MOCLDY    83  64  52 SE13G20   30.04S
BURLINGTON       N/A     89  54  30 SE15      30.00S
WRAY           FAIR      86  63  45 E9        29.97
STERLING       FAIR      86  64  48 S5        29.97R
HOLYOKE        FAIR      84  64  51 W13       29.97S
FORT MORGAN    FAIR      84  58  40 E5        30.02S
$$

COZ086-089-092>099-230300-
...SOUTHEAST COLORADO...

CITY           SKY/WX    TMP DP  RH WIND       PRES   REMARKS
PUEBLO         FAIR      85  58  39 VRB7      30.06R
LA JUNTA       FAIR      89  52  28 N13       30.02R
LAMAR          FAIR      93  52  24 S10       29.94S
SPRINGFIELD      N/A     84  55  36 S7        30.03R
$$



USA.gov is the U.S. government's official web portal to all federal, state and local government web resources and services.